Location: Hains Lake
(37.8540°N, 99.8578°W)
Time: 13:54:50
(UTC+00:00)

Transit 2A - Pass Details

Date: 27 April 2021
Orbit: 602 x 957 km, 66.7° (Epoch: 13 May)

Event Time Altitude Azimuth Distance (km) Brightness Sun altitude
Rises 19:16:58 0° 353° (N) 2,882 8.8 64.6°
Reaches altitude 10° 19:21:13 10° 33° (NNE) 2,022 8.1 64.3°
Maximum altitude 19:22:14 11° 46° (NE) 1,994 8.0 64.2°
Drops below altitude 10° 19:23:16 10° 59° (ENE) 2,053 8.1 64.1°
Sets 19:27:44 0° 98° (E) 3,049 9.0 63.7°
